Time,TemperatureF,DewpointF,PressureIn,WindDirection,WindDirectionDegrees,WindSpeedMPH,WindSpeedGustMPH,Humidity,HourlyPrecipIn,Conditions,Clouds,dailyrainin,SoftwareType,DateUTC
2013-11-03 00:01:00,54.2,46.8,30.07,ESE,122,0.0,0.0,76,0.00,,---,0.00,VWS V14.01,2013-11-03 05:01:00,
2013-11-03 00:06:00,53.9,46.5,30.07,WSW,243,0.0,1.0,76,0.00,,---,0.00,VWS V14.01,2013-11-03 05:06:00,
2013-11-03 00:11:00,53.8,46.4,30.07,WNW,291,0.0,2.0,76,0.00,,---,0.00,VWS V14.01,2013-11-03 05:11:00,
2013-11-03 00:16:00,53.6,46.6,30.07,WSW,245,0.0,2.0,77,0.00,,---,0.00,VWS V14.01,2013-11-03 05:16:00,
2013-11-03 00:21:00,53.4,46.4,30.07,NNW,328,0.0,2.0,77,0.00,,---,0.00,VWS V14.01,2013-11-03 05:21:00,
2013-11-03 00:26:00,53.4,46.4,30.07,West,264,0.0,2.0,77,0.00,,---,0.00,VWS V14.01,2013-11-03 05:26:00,
2013-11-03 00:31:00,53.4,46.4,30.08,West,271,0.0,1.0,77,0.00,,---,0.00,VWS V14.01,2013-11-03 05:31:00,
2013-11-03 00:36:00,53.4,46.4,30.08,WSW,257,0.0,1.0,77,0.00,,---,0.00,VWS V14.01,2013-11-03 05:36:00,
2013-11-03 00:41:00,53.2,46.5,30.08,NW,316,0.0,1.0,78,0.00,,---,0.00,VWS V14.01,2013-11-03 05:41:00,
2013-11-03 00:46:00,53.0,46.0,30.08,West,259,0.0,1.0,77,0.00,,---,0.00,VWS V14.01,2013-11-03 05:46:00,
2013-11-03 00:51:00,52.8,46.5,30.08,West,259,0.0,1.0,79,0.00,,---,0.00,VWS V14.01,2013-11-03 05:51:00,
2013-11-03 00:56:00,52.4,46.1,30.08,NNW,335,0.0,1.0,79,0.00,,---,0.00,VWS V14.01,2013-11-03 05:56:00,
2013-11-03 01:01:00,52.2,46.2,30.08,NNW,335,0.0,0.0,80,0.00,,---,0.00,VWS V14.01,2013-11-03 06:01:00,
2013-11-03 01:06:00,51.9,46.3,30.08,North,358,0.0,0.0,81,0.00,,---,0.00,VWS V14.01,2013-11-03 06:06:00,
2013-11-03 01:11:00,51.8,45.8,30.08,WNW,288,0.0,1.0,80,0.00,,---,0.00,VWS V14.01,2013-11-03 06:11:00,
2013-11-03 01:16:00,51.9,46.3,30.08,SW,228,0.0,1.0,81,0.00,,---,0.00,VWS V14.01,2013-11-03 06:16:00,
2013-11-03 01:21:00,52.1,46.1,30.08,South,188,0.0,2.0,80,0.00,,---,0.00,VWS V14.01,2013-11-03 06:21:00,
2013-11-03 01:26:00,52.0,46.0,30.09,NW,325,0.0,2.0,80,0.00,,---,0.00,VWS V14.01,2013-11-03 06:26:00,
2013-11-03 01:30:00,52.1,46.1,30.08,WSW,246,0.0,0.0,80,0.00,,---,0.00,VWS V14.01,2013-11-03 06:30:00,
2013-11-03 01:35:00,52.0,46.0,30.09,SW,219,0.0,0.0,80,0.00,,---,0.00,VWS V14.01,2013-11-03 06:35:00,
2013-11-03 01:40:00,51.7,46.1,30.09,SW,222,0.0,0.0,81,0.00,,---,0.00,VWS V14.01,2013-11-03 06:40:00,
2013-11-03 01:45:00,51.6,46.0,30.09,NW,311,0.0,1.0,81,0.00,,---,0.00,VWS V14.01,2013-11-03 06:45:00,
2013-11-03 01:50:00,51.3,45.7,30.09,West,266,0.0,1.0,81,0.00,,---,0.00,VWS V14.01,2013-11-03 06:50:00,
2013-11-03 01:55:00,51.1,45.8,30.09,NW,321,0.0,1.0,82,0.00,,---,0.00,VWS V14.01,2013-11-03 06:55:00,
2013-11-03 01:00:00,50.9,45.6,30.09,NW,322,0.0,1.0,82,0.00,,---,0.00,VWS V14.01,2013-11-03 07:00:00,
2013-11-03 01:05:00,50.7,45.7,30.10,WNW,299,0.0,1.0,83,0.00,,---,0.00,VWS V14.01,2013-11-03 07:05:00,
2013-11-03 01:10:00,50.4,45.4,30.09,SE,140,0.0,1.0,83,0.00,,---,0.00,VWS V14.01,2013-11-03 07:10:00,
2013-11-03 01:15:00,50.2,45.9,30.10,SE,139,0.0,1.0,85,0.00,,---,0.00,VWS V14.01,2013-11-03 07:15:00,
2013-11-03 01:20:00,49.9,45.6,30.10,SE,139,0.0,1.0,85,0.00,,---,0.00,VWS V14.01,2013-11-03 07:20:00,
2013-11-03 01:25:00,49.5,45.5,30.10,SE,139,0.0,1.0,86,0.00,,---,0.00,VWS V14.01,2013-11-03 07:25:00,
2013-11-03 01:30:00,49.1,45.4,30.10,SE,139,0.0,1.0,87,0.00,,---,0.00,VWS V14.01,2013-11-03 07:30:00,
2013-11-03 01:35:00,49.0,45.3,30.10,SE,140,0.0,1.0,87,0.00,,---,0.00,VWS V14.01,2013-11-03 07:35:00,
2013-11-03 01:40:00,48.8,45.4,30.10,SE,140,0.0,1.0,88,0.00,,---,0.00,VWS V14.01,2013-11-03 07:40:00,
2013-11-03 01:45:00,48.5,45.1,30.10,SE,139,0.0,1.0,88,0.00,,---,0.00,VWS V14.01,2013-11-03 07:45:00,
2013-11-03 01:50:00,48.2,45.1,30.11,SE,139,0.0,1.0,89,0.00,,---,0.00,VWS V14.01,2013-11-03 07:50:00,
2013-11-03 01:55:00,48.0,44.9,30.10,SE,139,0.0,1.0,89,0.00,,---,0.00,VWS V14.01,2013-11-03 07:55:00,
2013-11-03 02:00:00,47.7,44.9,30.10,SE,139,0.0,0.0,90,0.00,,---,0.00,VWS V14.01,2013-11-03 08:00:00,
2013-11-03 02:05:00,47.5,45.0,30.11,SE,139,0.0,0.0,91,0.00,,---,0.00,VWS V14.01,2013-11-03 08:05:00,
2013-11-03 02:10:00,47.2,44.7,30.11,SE,139,0.0,0.0,91,0.00,,---,0.00,VWS V14.01,2013-11-03 08:10:00,
2013-11-03 02:15:00,47.0,44.8,30.11,SE,140,0.0,0.0,92,0.00,,---,0.00,VWS V14.01,2013-11-03 08:15:00,
2013-11-03 02:20:00,46.8,44.6,30.11,SE,139,0.0,0.0,92,0.00,,---,0.00,VWS V14.01,2013-11-03 08:20:00,
2013-11-03 02:25:00,46.6,44.4,30.11,SE,139,0.0,0.0,92,0.00,,---,0.00,VWS V14.01,2013-11-03 08:25:00,
2013-11-03 02:30:00,46.5,44.6,30.11,SE,140,0.0,0.0,93,0.00,,---,0.00,VWS V14.01,2013-11-03 08:30:00,
2013-11-03 02:35:00,46.2,44.3,30.11,SE,139,0.0,0.0,93,0.00,,---,0.00,VWS V14.01,2013-11-03 08:35:00,
2013-11-03 02:40:00,46.0,44.1,30.11,SE,139,0.0,0.0,93,0.00,,---,0.00,VWS V14.01,2013-11-03 08:40:00,
2013-11-03 02:45:00,45.8,43.9,30.10,SE,139,0.0,0.0,93,0.00,,---,0.00,VWS V14.01,2013-11-03 08:45:00,
2013-11-03 02:50:00,45.7,44.1,30.10,SE,139,0.0,0.0,94,0.00,,---,0.00,VWS V14.01,2013-11-03 08:50:00,
2013-11-03 02:55:00,45.5,43.9,30.10,SE,139,0.0,0.0,94,0.00,,---,0.00,VWS V14.01,2013-11-03 08:55:00,
2013-11-03 03:00:00,45.3,43.7,30.11,SE,139,0.0,0.0,94,0.00,,---,0.00,VWS V14.01,2013-11-03 09:00:00,
2013-11-03 03:05:00,45.2,43.6,30.10,SE,139,0.0,0.0,94,0.00,,---,0.00,VWS V14.01,2013-11-03 09:05:00,
2013-11-03 03:10:00,45.2,43.9,30.10,SE,139,0.0,0.0,95,0.00,,---,0.00,VWS V14.01,2013-11-03 09:10:00,
2013-11-03 03:15:00,45.1,43.8,30.11,SE,139,0.0,0.0,95,0.00,,---,0.00,VWS V14.01,2013-11-03 09:15:00,
2013-11-03 03:20:00,45.0,43.7,30.11,SE,139,0.0,0.0,95,0.00,,---,0.00,VWS V14.01,2013-11-03 09:20:00,
2013-11-03 03:25:00,45.0,43.7,30.10,SE,139,0.0,0.0,95,0.00,,---,0.00,VWS V14.01,2013-11-03 09:25:00,
2013-11-03 03:30:00,44.9,43.6,30.10,SE,139,0.0,0.0,95,0.00,,---,0.00,VWS V14.01,2013-11-03 09:30:00,
2013-11-03 03:35:00,44.9,43.6,30.10,SE,139,0.0,0.0,95,0.00,,---,0.00,VWS V14.01,2013-11-03 09:35:00,
2013-11-03 03:40:00,44.8,43.5,30.10,SE,140,0.0,0.0,95,0.00,,---,0.00,VWS V14.01,2013-11-03 09:40:00,
2013-11-03 03:45:00,44.8,43.5,30.10,SE,139,0.0,0.0,95,0.00,,---,0.00,VWS V14.01,2013-11-03 09:45:00,
2013-11-03 03:50:00,44.6,43.3,30.10,SE,139,0.0,0.0,95,0.00,,---,0.00,VWS V14.01,2013-11-03 09:50:00,
2013-11-03 03:55:00,44.5,43.2,30.10,SE,139,0.0,0.0,95,0.00,,---,0.00,VWS V14.01,2013-11-03 09:55:00,
2013-11-03 04:00:00,44.4,43.1,30.10,SE,139,0.0,0.0,95,0.00,,---,0.00,VWS V14.01,2013-11-03 10:00:00,
2013-11-03 04:05:00,44.3,43.0,30.10,SE,139,0.0,0.0,95,0.00,,---,0.00,VWS V14.01,2013-11-03 10:05:00,
2013-11-03 04:10:00,44.4,43.3,30.10,WNW,283,0.0,0.0,96,0.00,,---,0.00,VWS V14.01,2013-11-03 10:10:00,
2013-11-03 04:15:00,44.4,43.3,30.10,West,281,0.0,0.0,96,0.00,,---,0.00,VWS V14.01,2013-11-03 10:15:00,
2013-11-03 04:20:00,44.5,43.4,30.10,West,270,0.0,0.0,96,0.00,,---,0.00,VWS V14.01,2013-11-03 10:20:00,
2013-11-03 04:25:00,44.6,43.5,30.10,NW,309,0.0,0.0,96,0.00,,---,0.00,VWS V14.01,2013-11-03 10:25:00,
2013-11-03 04:30:00,44.8,43.7,30.10,NW,307,0.0,0.0,96,0.00,,---,0.00,VWS V14.01,2013-11-03 10:30:00,
2013-11-03 04:35:00,45.1,44.0,30.10,WNW,302,0.0,4.0,96,0.00,,---,0.00,VWS V14.01,2013-11-03 10:35:00,
2013-11-03 04:40:00,45.3,44.0,30.10,NNW,333,0.0,4.0,95,0.00,,---,0.00,VWS V14.01,2013-11-03 10:40:00,
2013-11-03 04:45:00,45.5,44.2,30.10,West,274,0.0,4.0,95,0.00,,---,0.00,VWS V14.01,2013-11-03 10:45:00,
2013-11-03 04:50:00,45.5,44.2,30.10,NNW,333,0.0,4.0,95,0.00,,---,0.00,VWS V14.01,2013-11-03 10:50:00,
2013-11-03 04:55:00,45.6,44.2,30.11,NNW,327,0.0,4.0,95,0.00,,---,0.00,VWS V14.01,2013-11-03 10:55:00,
2013-11-03 05:00:00,45.8,44.2,30.11,West,266,0.0,0.0,94,0.00,,---,0.00,VWS V14.01,2013-11-03 11:00:00,
2013-11-03 05:05:00,45.9,44.3,30.11,WNW,283,0.0,1.0,94,0.00,,---,0.00,VWS V14.01,2013-11-03 11:05:00,
2013-11-03 05:10:00,45.8,44.2,30.11,WNW,283,0.0,1.0,94,0.00,,---,0.00,VWS V14.01,2013-11-03 11:10:00,
2013-11-03 05:15:00,45.6,44.0,30.11,WNW,285,0.0,1.0,94,0.00,,---,0.00,VWS V14.01,2013-11-03 11:15:00,
2013-11-03 05:20:00,45.5,43.9,30.11,WNW,287,0.0,1.0,94,0.00,,---,0.00,VWS V14.01,2013-11-03 11:20:00,
2013-11-03 05:25:00,45.4,43.8,30.11,WNW,290,0.0,1.0,94,0.00,,---,0.00,VWS V14.01,2013-11-03 11:25:00,
2013-11-03 05:30:00,45.3,43.7,30.11,West,280,0.0,0.0,94,0.00,,---,0.00,VWS V14.01,2013-11-03 11:30:00,
2013-11-03 05:35:00,45.3,43.7,30.11,NW,308,0.0,0.0,94,0.00,,---,0.00,VWS V14.01,2013-11-03 11:35:00,
2013-11-03 05:40:00,45.2,43.6,30.11,NW,305,0.0,0.0,94,0.00,,---,0.00,VWS V14.01,2013-11-03 11:40:00,
2013-11-03 05:45:00,45.1,43.5,30.11,NW,307,0.0,0.0,94,0.00,,---,0.00,VWS V14.01,2013-11-03 11:45:00,
2013-11-03 05:50:00,45.0,43.7,30.11,NNW,345,0.0,0.0,95,0.00,,---,0.00,VWS V14.01,2013-11-03 11:50:00,
2013-11-03 05:55:00,44.9,43.6,30.11,SE,145,0.0,1.0,95,0.00,,---,0.00,VWS V14.01,2013-11-03 11:55:00,
2013-11-03 06:00:00,44.9,43.6,30.12,WSW,257,0.0,0.0,95,0.00,,---,0.00,VWS V14.01,2013-11-03 12:00:00,
2013-11-03 06:05:00,44.8,43.5,30.12,WSW,257,0.0,0.0,95,0.00,,---,0.00,VWS V14.01,2013-11-03 12:05:00,
2013-11-03 06:10:00,44.7,43.4,30.12,WSW,257,0.0,0.0,95,0.00,,---,0.00,VWS V14.01,2013-11-03 12:10:00,
2013-11-03 06:14:00,44.6,43.3,30.12,WSW,257,0.0,0.0,95,0.00,,---,0.00,VWS V14.01,2013-11-03 12:14:00,
2013-11-03 06:19:00,44.5,43.2,30.12,WSW,257,0.0,0.0,95,0.00,,---,0.00,VWS V14.01,2013-11-03 12:19:00,
2013-11-03 06:24:00,44.4,43.1,30.12,WSW,257,0.0,0.0,95,0.00,,---,0.00,VWS V14.01,2013-11-03 12:24:00,
2013-11-03 06:29:00,44.3,43.0,30.13,WSW,257,0.0,0.0,95,0.00,,---,0.00,VWS V14.01,2013-11-03 12:29:00,
2013-11-03 06:34:00,44.3,43.0,30.13,West,259,0.0,1.0,95,0.00,,---,0.00,VWS V14.01,2013-11-03 12:34:00,
2013-11-03 06:39:00,44.3,43.2,30.13,West,260,0.0,1.0,96,0.00,,---,0.00,VWS V14.01,2013-11-03 12:39:00,
2013-11-03 06:44:00,44.3,43.2,30.14,West,260,0.0,1.0,96,0.00,,---,0.00,VWS V14.01,2013-11-03 12:44:00,
2013-11-03 06:49:00,44.4,43.3,30.14,West,260,0.0,1.0,96,0.00,,---,0.00,VWS V14.01,2013-11-03 12:49:00,
2013-11-03 06:54:00,44.4,43.3,30.14,West,260,0.0,1.0,96,0.00,,---,0.00,VWS V14.01,2013-11-03 12:54:00,
2013-11-03 06:59:00,44.5,43.4,30.15,West,259,0.0,0.0,96,0.00,,---,0.00,VWS V14.01,2013-11-03 12:59:00,
2013-11-03 07:04:00,44.7,43.6,30.15,West,259,0.0,0.0,96,0.00,,---,0.00,VWS V14.01,2013-11-03 13:04:00,
2013-11-03 07:09:00,44.9,43.8,30.15,West,260,0.0,0.0,96,0.00,,---,0.00,VWS V14.01,2013-11-03 13:09:00,
2013-11-03 07:14:00,45.2,44.1,30.15,South,188,0.0,0.0,96,0.00,,---,0.00,VWS V14.01,2013-11-03 13:14:00,
2013-11-03 07:19:00,45.5,44.4,30.16,SSW,207,0.0,0.0,96,0.00,,---,0.00,VWS V14.01,2013-11-03 13:19:00,
2013-11-03 07:24:00,45.9,44.8,30.16,SSE,152,0.0,0.0,96,0.00,,---,0.00,VWS V14.01,2013-11-03 13:24:00,
2013-11-03 07:29:00,46.3,45.2,30.16,West,271,0.0,0.0,96,0.00,,---,0.00,VWS V14.01,2013-11-03 13:29:00,
2013-11-03 07:34:00,46.7,45.3,30.16,West,281,0.0,1.0,95,0.00,,---,0.00,VWS V14.01,2013-11-03 13:34:00,
2013-11-03 07:39:00,47.2,45.8,30.16,West,260,0.0,2.0,95,0.00,,---,0.00,VWS V14.01,2013-11-03 13:39:00,
2013-11-03 07:44:00,47.6,46.0,30.16,ESE,114,0.0,2.0,94,0.00,,---,0.00,VWS V14.01,2013-11-03 13:44:00,
2013-11-03 07:49:00,47.9,46.0,30.16,North,5,0.0,2.0,93,0.00,,---,0.00,VWS V14.01,2013-11-03 13:49:00,
2013-11-03 07:54:00,48.2,46.3,30.16,NW,321,0.0,2.0,93,0.00,,---,0.00,VWS V14.01,2013-11-03 13:54:00,
2013-11-03 07:59:00,48.6,46.4,30.17,WSW,243,0.0,0.0,92,0.00,,---,0.00,VWS V14.01,2013-11-03 13:59:00,
2013-11-03 08:04:00,49.0,46.8,30.17,SW,236,0.0,0.0,92,0.00,,---,0.00,VWS V14.01,2013-11-03 14:04:00,
2013-11-03 08:09:00,49.5,47.0,30.17,WSW,249,0.0,4.0,91,0.00,,---,0.00,VWS V14.01,2013-11-03 14:09:00,
2013-11-03 08:14:00,50.1,47.3,30.17,WNW,289,0.0,4.0,90,0.00,,---,0.00,VWS V14.01,2013-11-03 14:14:00,
2013-11-03 08:19:00,50.7,47.6,30.17,SW,224,0.0,4.0,89,0.00,,---,0.00,VWS V14.01,2013-11-03 14:19:00,
2013-11-03 08:24:00,51.2,47.8,30.17,WSW,255,0.0,4.0,88,0.00,,---,0.00,VWS V14.01,2013-11-03 14:24:00,
2013-11-03 08:29:00,51.6,47.9,30.17,West,263,0.0,0.0,87,0.00,,---,0.00,VWS V14.01,2013-11-03 14:29:00,
2013-11-03 08:34:00,52.1,48.0,30.17,WNW,291,1.0,2.0,86,0.00,,---,0.00,VWS V14.01,2013-11-03 14:34:00,
2013-11-03 08:39:00,52.6,48.2,30.17,WSW,249,0.0,2.0,85,0.00,,---,0.00,VWS V14.01,2013-11-03 14:39:00,
2013-11-03 08:44:00,53.0,48.3,30.17,West,268,0.0,3.0,84,0.00,,---,0.00,VWS V14.01,2013-11-03 14:44:00,
2013-11-03 08:49:00,53.3,48.3,30.17,WNW,291,0.0,3.0,83,0.00,,---,0.00,VWS V14.01,2013-11-03 14:49:00,
2013-11-03 08:54:00,53.8,49.1,30.17,WNW,299,0.0,3.0,84,0.00,,---,0.00,VWS V14.01,2013-11-03 14:54:00,
2013-11-03 08:59:00,54.1,48.4,30.17,WSW,240,0.0,1.0,81,0.00,,---,0.00,VWS V14.01,2013-11-03 14:59:00,
2013-11-03 09:04:00,54.5,48.8,30.17,SW,228,0.0,2.0,81,0.00,,---,0.00,VWS V14.01,2013-11-03 15:04:00,
2013-11-03 09:09:00,54.9,48.9,30.17,SSW,208,0.0,2.0,80,0.00,,---,0.00,VWS V14.01,2013-11-03 15:09:00,
2013-11-03 09:14:00,55.3,48.9,30.17,WSW,238,0.0,2.0,79,0.00,,---,0.00,VWS V14.01,2013-11-03 15:14:00,
2013-11-03 09:19:00,55.9,49.2,30.17,WNW,297,0.0,2.0,78,0.00,,---,0.00,VWS V14.01,2013-11-03 15:19:00,
2013-11-03 09:24:00,56.5,49.7,30.17,NW,311,0.0,2.0,78,0.00,,---,0.00,VWS V14.01,2013-11-03 15:24:00,
2013-11-03 09:29:00,56.9,49.8,30.17,SW,231,0.0,1.0,77,0.00,,---,0.00,VWS V14.01,2013-11-03 15:29:00,
2013-11-03 09:34:00,57.2,50.1,30.17,SW,217,0.0,3.0,77,0.00,,---,0.00,VWS V14.01,2013-11-03 15:34:00,
2013-11-03 09:39:00,57.5,49.7,30.17,SSE,163,0.0,3.0,75,0.00,,---,0.00,VWS V14.01,2013-11-03 15:39:00,
2013-11-03 09:44:00,57.9,49.7,30.17,WNW,288,0.0,3.0,74,0.00,,---,0.00,VWS V14.01,2013-11-03 15:44:00,
2013-11-03 09:49:00,58.2,49.6,30.17,SSW,208,1.0,3.0,73,0.00,,---,0.00,VWS V14.01,2013-11-03 15:49:00,
2013-11-03 09:54:00,58.5,49.9,30.17,NNW,327,0.0,3.0,73,0.00,,---,0.00,VWS V14.01,2013-11-03 15:54:00,
2013-11-03 09:59:00,59.0,50.0,30.17,ENE,72,0.0,3.0,72,0.00,,---,0.00,VWS V14.01,2013-11-03 15:59:00,
2013-11-03 10:04:00,59.3,49.5,30.17,NE,51,0.0,4.0,70,0.00,,---,0.00,VWS V14.01,2013-11-03 16:04:00,
2013-11-03 10:09:00,59.8,49.2,30.17,SSW,205,0.0,4.0,68,0.00,,---,0.00,VWS V14.01,2013-11-03 16:09:00,
2013-11-03 10:14:00,59.9,50.1,30.17,WSW,255,0.0,5.0,70,0.00,,---,0.00,VWS V14.01,2013-11-03 16:14:00,
2013-11-03 10:19:00,60.4,50.2,30.17,SW,226,1.0,5.0,69,0.00,,---,0.00,VWS V14.01,2013-11-03 16:19:00,
2013-11-03 10:24:00,60.6,50.0,30.16,West,259,0.0,5.0,68,0.00,,---,0.00,VWS V14.01,2013-11-03 16:24:00,
2013-11-03 10:29:00,61.3,49.9,30.16,WNW,283,3.0,3.0,66,0.00,,---,0.00,VWS V14.01,2013-11-03 16:29:00,
2013-11-03 10:34:00,61.7,49.4,30.16,SSW,205,0.0,4.0,64,0.00,,---,0.00,VWS V14.01,2013-11-03 16:34:00,
2013-11-03 10:39:00,62.4,50.5,30.16,NNW,341,0.0,4.0,65,0.00,,---,0.00,VWS V14.01,2013-11-03 16:39:00,
2013-11-03 10:44:00,63.0,50.2,30.16,WNW,303,0.0,4.0,63,0.00,,---,0.00,VWS V14.01,2013-11-03 16:44:00,
2013-11-03 10:49:00,63.3,49.2,30.16,SW,226,0.0,4.0,60,0.00,,---,0.00,VWS V14.01,2013-11-03 16:49:00,
2013-11-03 10:54:00,63.8,51.0,30.16,West,260,1.0,4.0,63,0.00,,---,0.00,VWS V14.01,2013-11-03 16:54:00,
2013-11-03 10:59:00,64.2,50.0,30.16,East,91,0.0,2.0,60,0.00,,---,0.00,VWS V14.01,2013-11-03 16:59:00,
2013-11-03 11:04:00,64.7,50.5,30.15,SW,224,0.0,3.0,60,0.00,,---,0.00,VWS V14.01,2013-11-03 17:04:00,
2013-11-03 11:09:00,65.1,50.4,30.15,SSW,198,0.0,4.0,59,0.00,,---,0.00,VWS V14.01,2013-11-03 17:09:00,
2013-11-03 11:14:00,65.6,50.4,30.15,WSW,255,1.0,4.0,58,0.00,,---,0.00,VWS V14.01,2013-11-03 17:14:00,
2013-11-03 11:19:00,65.9,50.2,30.15,West,260,0.0,4.0,57,0.00,,---,0.00,VWS V14.01,2013-11-03 17:19:00,
2013-11-03 11:24:00,66.2,50.5,30.14,West,280,0.0,4.0,57,0.00,,---,0.00,VWS V14.01,2013-11-03 17:24:00,
2013-11-03 11:29:00,66.4,51.2,30.13,SE,145,0.0,4.0,58,0.00,,---,0.00,VWS V14.01,2013-11-03 17:29:00,
2013-11-03 11:34:00,66.6,50.9,30.13,SSW,213,0.0,4.0,57,0.00,,---,0.00,VWS V14.01,2013-11-03 17:34:00,
2013-11-03 11:39:00,66.7,49.5,30.13,WSW,243,2.0,4.0,54,0.00,,---,0.00,VWS V14.01,2013-11-03 17:39:00,
2013-11-03 11:44:00,66.9,51.7,30.12,WSW,249,1.0,5.0,58,0.00,,---,0.00,VWS V14.01,2013-11-03 17:44:00,
2013-11-03 11:49:00,67.2,50.0,30.12,WNW,293,0.0,5.0,54,0.00,,---,0.00,VWS V14.01,2013-11-03 17:49:00,
2013-11-03 11:54:00,67.5,50.3,30.12,WSW,243,0.0,5.0,54,0.00,,---,0.00,VWS V14.01,2013-11-03 17:54:00,
2013-11-03 11:59:00,67.9,52.6,30.11,WNW,294,0.0,0.0,58,0.00,,---,0.00,VWS V14.01,2013-11-03 17:59:00,
2013-11-03 12:04:00,68.5,50.7,30.11,ESE,110,0.0,2.0,53,0.00,,---,0.00,VWS V14.01,2013-11-03 18:04:00,
2013-11-03 12:09:00,68.3,50.5,30.10,WSW,246,0.0,2.0,53,0.00,,---,0.00,VWS V14.01,2013-11-03 18:09:00,
2013-11-03 12:14:00,68.5,50.7,30.10,SW,215,0.0,2.0,53,0.00,,---,0.00,VWS V14.01,2013-11-03 18:14:00,
2013-11-03 12:19:00,69.0,52.7,30.10,ESE,114,0.0,2.0,56,0.00,,---,0.00,VWS V14.01,2013-11-03 18:19:00,
2013-11-03 12:24:00,69.4,51.5,30.10,NW,312,0.0,2.0,53,0.00,,---,0.00,VWS V14.01,2013-11-03 18:24:00,
2013-11-03 12:29:00,69.4,50.5,30.09,WNW,301,0.0,0.0,51,0.00,,---,0.00,VWS V14.01,2013-11-03 18:29:00,
2013-11-03 12:34:00,69.7,50.2,30.09,WSW,252,0.0,2.0,50,0.00,,---,0.00,VWS V14.01,2013-11-03 18:34:00,
2013-11-03 12:39:00,69.6,50.2,30.09,WSW,246,2.0,2.0,50,0.00,,---,0.00,VWS V14.01,2013-11-03 18:39:00,
2013-11-03 12:44:00,69.4,48.9,30.09,WSW,239,0.0,3.0,48,0.00,,---,0.00,VWS V14.01,2013-11-03 18:44:00,
2013-11-03 12:49:00,69.0,48.5,30.08,WSW,252,2.0,3.0,48,0.00,,---,0.00,VWS V14.01,2013-11-03 18:49:00,
2013-11-03 12:54:00,68.8,51.0,30.08,West,263,0.0,3.0,53,0.00,,---,0.00,VWS V14.01,2013-11-03 18:54:00,
2013-11-03 12:59:00,69.2,48.7,30.08,WNW,283,0.0,1.0,48,0.00,,---,0.00,VWS V14.01,2013-11-03 18:59:00,
2013-11-03 13:04:00,69.4,48.3,30.08,NW,316,2.0,3.0,47,0.00,,---,0.00,VWS V14.01,2013-11-03 19:04:00,
2013-11-03 13:09:00,69.0,48.5,30.08,WSW,255,0.0,3.0,48,0.00,,---,0.00,VWS V14.01,2013-11-03 19:09:00,
2013-11-03 13:14:00,69.0,49.1,30.08,SSW,203,0.0,3.0,49,0.00,,---,0.00,VWS V14.01,2013-11-03 19:14:00,
2013-11-03 13:19:00,69.0,49.6,30.08,ENE,72,0.0,3.0,50,0.00,,---,0.00,VWS V14.01,2013-11-03 19:19:00,
2013-11-03 13:23:00,68.9,47.9,30.08,West,266,0.0,3.0,47,0.00,,---,0.00,VWS V14.01,2013-11-03 19:23:00,
2013-11-03 13:28:00,69.2,48.7,30.08,NW,313,0.0,0.0,48,0.00,,---,0.00,VWS V14.01,2013-11-03 19:28:00,
2013-11-03 13:33:00,69.3,48.2,30.08,WNW,285,0.0,1.0,47,0.00,,---,0.00,VWS V14.01,2013-11-03 19:33:00,
2013-11-03 13:38:00,69.2,48.1,30.07,NW,307,0.0,3.0,47,0.00,,---,0.00,VWS V14.01,2013-11-03 19:38:00,
2013-11-03 13:43:00,69.4,49.4,30.07,WSW,237,0.0,3.0,49,0.00,,---,0.00,VWS V14.01,2013-11-03 19:43:00,
2013-11-03 13:48:00,69.3,49.3,30.07,West,272,0.0,3.0,49,0.00,,---,0.00,VWS V14.01,2013-11-03 19:48:00,
2013-11-03 13:53:00,69.8,50.3,30.07,West,267,0.0,3.0,50,0.00,,---,0.00,VWS V14.01,2013-11-03 19:53:00,
2013-11-03 13:58:00,69.9,48.8,30.07,West,263,0.0,0.0,47,0.00,,---,0.00,VWS V14.01,2013-11-03 19:58:00,
2013-11-03 14:03:00,69.6,47.9,30.07,WNW,290,0.0,1.0,46,0.00,,---,0.00,VWS V14.01,2013-11-03 20:03:00,
2013-11-03 14:08:00,69.0,48.5,30.07,WSW,252,1.0,2.0,48,0.00,,---,0.00,VWS V14.01,2013-11-03 20:08:00,
2013-11-03 14:13:00,68.7,48.2,30.07,West,270,1.0,2.0,48,0.00,,---,0.00,VWS V14.01,2013-11-03 20:13:00,
2013-11-03 14:18:00,68.3,48.4,30.07,West,271,1.0,3.0,49,0.00,,---,0.00,VWS V14.01,2013-11-03 20:18:00,
2013-11-03 14:23:00,68.1,49.3,30.07,SW,218,0.0,4.0,51,0.00,,---,0.00,VWS V14.01,2013-11-03 20:23:00,
2013-11-03 14:28:00,67.9,49.7,30.06,SW,217,0.0,0.0,52,0.00,,---,0.00,VWS V14.01,2013-11-03 20:28:00,
2013-11-03 14:33:00,67.8,49.5,30.06,East,100,0.0,2.0,52,0.00,,---,0.00,VWS V14.01,2013-11-03 20:33:00,
2013-11-03 14:38:00,67.5,47.1,30.06,SW,225,0.0,2.0,48,0.00,,---,0.00,VWS V14.01,2013-11-03 20:38:00,
2013-11-03 14:43:00,67.2,46.3,30.06,WNW,291,0.0,3.0,47,0.00,,---,0.00,VWS V14.01,2013-11-03 20:43:00,
2013-11-03 14:48:00,66.9,48.7,30.06,West,273,0.0,3.0,52,0.00,,---,0.00,VWS V14.01,2013-11-03 20:48:00,
2013-11-03 14:53:00,66.4,48.8,30.06,West,274,0.0,3.0,53,0.00,,---,0.00,VWS V14.01,2013-11-03 20:53:00,
2013-11-03 14:58:00,66.0,47.9,30.06,WSW,240,0.0,0.0,52,0.00,,---,0.00,VWS V14.01,2013-11-03 20:58:00,
2013-11-03 15:03:00,65.7,49.1,30.06,SSE,156,0.0,0.0,55,0.00,,---,0.00,VWS V14.01,2013-11-03 21:03:00,
2013-11-03 15:08:00,65.5,48.9,30.06,WNW,282,0.0,1.0,55,0.00,,---,0.00,VWS V14.01,2013-11-03 21:08:00,
2013-11-03 15:13:00,65.2,48.6,30.06,WNW,285,0.0,1.0,55,0.00,,---,0.00,VWS V14.01,2013-11-03 21:13:00,
2013-11-03 15:18:00,64.9,49.3,30.06,WNW,285,0.0,1.0,57,0.00,,---,0.00,VWS V14.01,2013-11-03 21:18:00,
2013-11-03 15:23:00,64.5,49.4,30.06,WSW,249,2.0,2.0,58,0.00,,---,0.00,VWS V14.01,2013-11-03 21:23:00,
2013-11-03 15:28:00,64.5,51.2,30.06,West,262,0.0,0.0,62,0.00,,---,0.00,VWS V14.01,2013-11-03 21:28:00,
2013-11-03 15:33:00,64.2,49.1,30.07,West,264,0.0,1.0,58,0.00,,---,0.00,VWS V14.01,2013-11-03 21:33:00,
2013-11-03 15:38:00,64.1,50.4,30.06,West,266,0.0,1.0,61,0.00,,---,0.00,VWS V14.01,2013-11-03 21:38:00,
2013-11-03 15:43:00,63.8,50.1,30.07,West,264,0.0,1.0,61,0.00,,---,0.00,VWS V14.01,2013-11-03 21:43:00,
2013-11-03 15:48:00,63.5,50.7,30.07,West,264,0.0,1.0,63,0.00,,---,0.00,VWS V14.01,2013-11-03 21:48:00,
2013-11-03 15:53:00,63.1,52.8,30.07,West,264,0.0,1.0,69,0.00,,---,0.00,VWS V14.01,2013-11-03 21:53:00,
2013-11-03 15:58:00,62.6,52.3,30.07,West,264,0.0,0.0,69,0.00,,---,0.00,VWS V14.01,2013-11-03 21:58:00,
2013-11-03 16:03:00,62.2,51.9,30.07,West,264,0.0,0.0,69,0.00,,---,0.00,VWS V14.01,2013-11-03 22:03:00,
2013-11-03 16:08:00,61.8,51.5,30.06,West,264,0.0,0.0,69,0.00,,---,0.00,VWS V14.01,2013-11-03 22:08:00,
2013-11-03 16:13:00,61.4,51.2,30.06,West,264,0.0,0.0,69,0.00,,---,0.00,VWS V14.01,2013-11-03 22:13:00,
2013-11-03 16:18:00,61.1,51.6,30.06,West,266,0.0,0.0,71,0.00,,---,0.00,VWS V14.01,2013-11-03 22:18:00,
2013-11-03 16:23:00,60.9,50.3,30.06,SE,125,0.0,0.0,68,0.00,,---,0.00,VWS V14.01,2013-11-03 22:23:00,
2013-11-03 16:28:00,60.7,50.9,30.06,SE,125,0.0,0.0,70,0.00,,---,0.00,VWS V14.01,2013-11-03 22:28:00,
2013-11-03 16:33:00,60.3,51.6,30.06,SE,125,0.0,0.0,73,0.00,,---,0.00,VWS V14.01,2013-11-03 22:33:00,
2013-11-03 16:38:00,59.8,51.5,30.06,SE,126,0.0,0.0,74,0.00,,---,0.00,VWS V14.01,2013-11-03 22:38:00,
2013-11-03 16:43:00,59.2,51.3,30.06,SE,125,0.0,0.0,75,0.00,,---,0.00,VWS V14.01,2013-11-03 22:43:00,
2013-11-03 16:48:00,58.7,51.2,30.06,SE,125,0.0,0.0,76,0.00,,---,0.00,VWS V14.01,2013-11-03 22:48:00,
2013-11-03 16:53:00,58.2,51.4,30.07,SE,125,0.0,0.0,78,0.00,,---,0.00,VWS V14.01,2013-11-03 22:53:00,
2013-11-03 16:58:00,57.5,50.7,30.07,SE,125,0.0,0.0,78,0.00,,---,0.00,VWS V14.01,2013-11-03 22:58:00,
2013-11-03 17:03:00,56.9,50.8,30.07,SE,125,0.0,0.0,80,0.00,,---,0.00,VWS V14.01,2013-11-03 23:03:00,
2013-11-03 17:08:00,56.3,50.5,30.07,SE,125,0.0,0.0,81,0.00,,---,0.00,VWS V14.01,2013-11-03 23:08:00,
2013-11-03 17:13:00,55.7,50.3,30.07,SE,125,0.0,0.0,82,0.00,,---,0.00,VWS V14.01,2013-11-03 23:13:00,
2013-11-03 17:18:00,55.2,49.8,30.07,SE,126,0.0,0.0,82,0.00,,---,0.00,VWS V14.01,2013-11-03 23:18:00,
2013-11-03 17:23:00,54.8,50.1,30.07,SE,125,0.0,0.0,84,0.00,,---,0.00,VWS V14.01,2013-11-03 23:23:00,
2013-11-03 17:28:00,54.3,49.9,30.07,SE,125,0.0,0.0,85,0.00,,---,0.00,VWS V14.01,2013-11-03 23:28:00,
2013-11-03 17:33:00,53.9,49.5,30.07,SE,125,0.0,0.0,85,0.00,,---,0.00,VWS V14.01,2013-11-03 23:33:00,
2013-11-03 17:38:00,53.5,49.4,30.07,SE,125,0.0,0.0,86,0.00,,---,0.00,VWS V14.01,2013-11-03 23:38:00,
2013-11-03 17:43:00,53.2,49.4,30.07,SE,125,0.0,0.0,87,0.00,,---,0.00,VWS V14.01,2013-11-03 23:43:00,
2013-11-03 17:48:00,52.8,49.3,30.07,SE,125,0.0,0.0,88,0.00,,---,0.00,VWS V14.01,2013-11-03 23:48:00,
2013-11-03 17:53:00,52.5,49.0,30.07,SE,126,0.0,0.0,88,0.00,,---,0.00,VWS V14.01,2013-11-03 23:53:00,
2013-11-03 17:58:00,52.2,49.1,30.07,SE,125,0.0,0.0,89,0.00,,---,0.00,VWS V14.01,2013-11-03 23:58:00,
2013-11-03 18:03:00,52.0,49.2,30.08,SE,125,0.0,0.0,90,0.00,,---,0.00,VWS V14.01,2013-11-04 00:03:00,
2013-11-03 18:08:00,51.7,48.9,30.08,SE,125,0.0,0.0,90,0.00,,---,0.00,VWS V14.01,2013-11-04 00:08:00,
2013-11-03 18:13:00,51.5,49.0,30.08,SE,125,0.0,0.0,91,0.00,,---,0.00,VWS V14.01,2013-11-04 00:13:00,
2013-11-03 18:18:00,51.2,49.0,30.08,SE,125,0.0,0.0,92,0.00,,---,0.00,VWS V14.01,2013-11-04 00:18:00,
2013-11-03 18:23:00,51.0,48.8,30.08,SE,125,0.0,0.0,92,0.00,,---,0.00,VWS V14.01,2013-11-04 00:23:00,
2013-11-03 18:28:00,50.8,48.6,30.08,SE,125,0.0,0.0,92,0.00,,---,0.00,VWS V14.01,2013-11-04 00:28:00,
2013-11-03 18:33:00,50.6,48.7,30.08,SE,125,0.0,0.0,93,0.00,,---,0.00,VWS V14.01,2013-11-04 00:33:00,
2013-11-03 18:38:00,50.4,48.5,30.09,SE,125,0.0,0.0,93,0.00,,---,0.00,VWS V14.01,2013-11-04 00:38:00,
2013-11-03 18:43:00,50.2,48.3,30.09,SE,125,0.0,0.0,93,0.00,,---,0.00,VWS V14.01,2013-11-04 00:43:00,
2013-11-03 18:47:00,50.1,48.2,30.10,SE,125,0.0,0.0,93,0.00,,---,0.00,VWS V14.01,2013-11-04 00:47:00,
2013-11-03 18:52:00,49.9,48.2,30.10,SE,125,0.0,0.0,94,0.00,,---,0.00,VWS V14.01,2013-11-04 00:52:00,
2013-11-03 18:57:00,49.8,48.2,30.10,SE,126,0.0,0.0,94,0.00,,---,0.00,VWS V14.01,2013-11-04 00:57:00,
2013-11-03 19:02:00,49.6,48.0,30.11,SE,125,0.0,0.0,94,0.00,,---,0.00,VWS V14.01,2013-11-04 01:02:00,
2013-11-03 19:07:00,49.5,47.8,30.10,SE,125,0.0,0.0,94,0.00,,---,0.00,VWS V14.01,2013-11-04 01:07:00,
2013-11-03 19:12:00,49.4,47.8,30.11,SE,125,0.0,0.0,94,0.00,,---,0.00,VWS V14.01,2013-11-04 01:12:00,
2013-11-03 19:17:00,49.2,47.5,30.11,SE,125,0.0,0.0,94,0.00,,---,0.00,VWS V14.01,2013-11-04 01:17:00,
2013-11-03 19:22:00,49.0,47.3,30.11,SE,125,0.0,0.0,94,0.00,,---,0.00,VWS V14.01,2013-11-04 01:22:00,
2013-11-03 19:27:00,48.9,47.2,30.11,SE,125,0.0,0.0,94,0.00,,---,0.00,VWS V14.01,2013-11-04 01:27:00,
2013-11-03 19:32:00,48.7,47.3,30.11,SE,125,0.0,0.0,95,0.00,,---,0.00,VWS V14.01,2013-11-04 01:32:00,
2013-11-03 19:37:00,48.6,47.2,30.12,SE,125,0.0,0.0,95,0.00,,---,0.00,VWS V14.01,2013-11-04 01:37:00,
2013-11-03 19:42:00,48.4,47.0,30.12,SE,126,0.0,0.0,95,0.00,,---,0.00,VWS V14.01,2013-11-04 01:42:00,
2013-11-03 19:47:00,48.2,46.8,30.12,SE,126,0.0,0.0,95,0.00,,---,0.00,VWS V14.01,2013-11-04 01:47:00,
2013-11-03 19:52:00,48.1,46.7,30.12,SE,125,0.0,0.0,95,0.00,,---,0.00,VWS V14.01,2013-11-04 01:52:00,
2013-11-03 19:57:00,48.0,46.6,30.13,SE,125,0.0,0.0,95,0.00,,---,0.00,VWS V14.01,2013-11-04 01:57:00,
2013-11-03 20:02:00,47.9,46.5,30.13,SE,125,0.0,0.0,95,0.00,,---,0.00,VWS V14.01,2013-11-04 02:02:00,
2013-11-03 20:07:00,47.9,46.8,30.13,SE,125,0.0,0.0,96,0.00,,---,0.00,VWS V14.01,2013-11-04 02:07:00,
2013-11-03 20:12:00,48.0,46.9,30.14,SE,125,0.0,0.0,96,0.00,,---,0.00,VWS V14.01,2013-11-04 02:12:00,
2013-11-03 20:17:00,47.9,46.8,30.14,SE,125,0.0,0.0,96,0.00,,---,0.00,VWS V14.01,2013-11-04 02:17:00,
2013-11-03 20:22:00,47.7,46.6,30.14,SE,125,0.0,0.0,96,0.00,,---,0.00,VWS V14.01,2013-11-04 02:22:00,
2013-11-03 20:27:00,47.6,46.5,30.14,SE,125,0.0,0.0,96,0.00,,---,0.00,VWS V14.01,2013-11-04 02:27:00,
2013-11-03 20:32:00,47.4,46.3,30.14,SE,125,0.0,0.0,96,0.00,,---,0.00,VWS V14.01,2013-11-04 02:32:00,
2013-11-03 20:37:00,47.2,46.1,30.14,SE,125,0.0,0.0,96,0.00,,---,0.00,VWS V14.01,2013-11-04 02:37:00,
2013-11-03 20:42:00,47.1,46.0,30.14,SE,125,0.0,0.0,96,0.00,,---,0.00,VWS V14.01,2013-11-04 02:42:00,
2013-11-03 20:47:00,46.9,45.8,30.14,SE,125,0.0,0.0,96,0.00,,---,0.00,VWS V14.01,2013-11-04 02:47:00,
2013-11-03 20:52:00,46.7,45.6,30.14,SE,125,0.0,0.0,96,0.00,,---,0.00,VWS V14.01,2013-11-04 02:52:00,
2013-11-03 20:57:00,46.6,45.5,30.14,SE,125,0.0,0.0,96,0.00,,---,0.00,VWS V14.01,2013-11-04 02:57:00,
2013-11-03 21:02:00,46.6,45.5,30.15,SE,125,0.0,0.0,96,0.00,,---,0.00,VWS V14.01,2013-11-04 03:02:00,
2013-11-03 21:07:00,46.5,45.4,30.15,SE,125,0.0,0.0,96,0.00,,---,0.00,VWS V14.01,2013-11-04 03:07:00,
2013-11-03 21:12:00,46.3,45.2,30.15,SE,125,0.0,0.0,96,0.00,,---,0.00,VWS V14.01,2013-11-04 03:12:00,
2013-11-03 21:17:00,46.1,45.0,30.15,SE,125,0.0,0.0,96,0.00,,---,0.00,VWS V14.01,2013-11-04 03:17:00,
2013-11-03 21:22:00,45.9,44.8,30.14,SE,125,0.0,0.0,96,0.00,,---,0.00,VWS V14.01,2013-11-04 03:22:00,
2013-11-03 21:27:00,45.8,44.7,30.14,SE,125,0.0,0.0,96,0.00,,---,0.00,VWS V14.01,2013-11-04 03:27:00,
2013-11-03 21:32:00,45.7,44.6,30.14,SE,125,0.0,0.0,96,0.00,,---,0.00,VWS V14.01,2013-11-04 03:32:00,
2013-11-03 21:37:00,45.7,44.6,30.14,SE,125,0.0,0.0,96,0.00,,---,0.00,VWS V14.01,2013-11-04 03:37:00,
2013-11-03 21:42:00,45.6,44.8,30.14,SE,125,0.0,0.0,97,0.00,,---,0.00,VWS V14.01,2013-11-04 03:42:00,
2013-11-03 21:47:00,45.5,44.7,30.14,SE,125,0.0,0.0,97,0.00,,---,0.00,VWS V14.01,2013-11-04 03:47:00,
2013-11-03 21:52:00,45.4,44.6,30.14,SE,125,0.0,0.0,97,0.00,,---,0.00,VWS V14.01,2013-11-04 03:52:00,
2013-11-03 21:57:00,45.3,44.5,30.14,SE,125,0.0,0.0,97,0.00,,---,0.00,VWS V14.01,2013-11-04 03:57:00,
2013-11-03 22:02:00,45.3,44.5,30.14,SE,125,0.0,0.0,97,0.00,,---,0.00,VWS V14.01,2013-11-04 04:02:00,
2013-11-03 22:07:00,45.1,44.3,30.13,SE,125,0.0,0.0,97,0.00,,---,0.00,VWS V14.01,2013-11-04 04:07:00,
2013-11-03 22:12:00,44.9,44.1,30.13,SE,125,0.0,0.0,97,0.00,,---,0.00,VWS V14.01,2013-11-04 04:12:00,
2013-11-03 22:17:00,44.8,44.0,30.13,SE,125,0.0,0.0,97,0.00,,---,0.00,VWS V14.01,2013-11-04 04:17:00,
2013-11-03 22:22:00,44.7,43.9,30.13,SE,125,0.0,0.0,97,0.00,,---,0.00,VWS V14.01,2013-11-04 04:22:00,
2013-11-03 22:27:00,44.7,43.9,30.13,SE,125,0.0,0.0,97,0.00,,---,0.00,VWS V14.01,2013-11-04 04:27:00,
2013-11-03 22:32:00,44.5,43.7,30.13,SE,125,0.0,0.0,97,0.00,,---,0.00,VWS V14.01,2013-11-04 04:32:00,
2013-11-03 22:37:00,44.5,43.7,30.13,SE,125,0.0,0.0,97,0.00,,---,0.00,VWS V14.01,2013-11-04 04:37:00,
2013-11-03 22:42:00,44.5,43.7,30.13,SE,125,0.0,0.0,97,0.00,,---,0.00,VWS V14.01,2013-11-04 04:42:00,
2013-11-03 22:47:00,44.4,43.6,30.12,SE,125,0.0,0.0,97,0.00,,---,0.00,VWS V14.01,2013-11-04 04:47:00,
2013-11-03 22:52:00,44.3,43.5,30.12,SE,125,0.0,0.0,97,0.00,,---,0.00,VWS V14.01,2013-11-04 04:52:00,
2013-11-03 22:57:00,44.3,43.5,30.12,SE,125,0.0,0.0,97,0.00,,---,0.00,VWS V14.01,2013-11-04 04:57:00,
2013-11-03 23:01:00,44.2,43.4,30.12,SE,125,0.0,0.0,97,0.00,,---,0.00,VWS V14.01,2013-11-04 05:01:00,
2013-11-03 23:06:00,44.2,43.4,30.12,SE,125,0.0,0.0,97,0.00,,---,0.00,VWS V14.01,2013-11-04 05:06:00,
2013-11-03 23:11:00,44.1,43.3,30.12,SE,125,0.0,0.0,97,0.00,,---,0.00,VWS V14.01,2013-11-04 05:11:00,
2013-11-03 23:16:00,44.0,43.2,30.12,SE,125,0.0,0.0,97,0.00,,---,0.00,VWS V14.01,2013-11-04 05:16:00,
2013-11-03 23:21:00,44.0,43.2,30.11,SE,125,0.0,0.0,97,0.00,,---,0.00,VWS V14.01,2013-11-04 05:21:00,
2013-11-03 23:26:00,44.0,43.2,30.11,SE,125,0.0,0.0,97,0.00,,---,0.00,VWS V14.01,2013-11-04 05:26:00,
2013-11-03 23:31:00,44.0,43.2,30.12,SE,125,0.0,0.0,97,0.00,,---,0.00,VWS V14.01,2013-11-04 05:31:00,
2013-11-03 23:36:00,44.0,43.2,30.11,SE,125,0.0,0.0,97,0.00,,---,0.00,VWS V14.01,2013-11-04 05:36:00,
2013-11-03 23:41:00,44.0,43.2,30.11,SE,125,0.0,0.0,97,0.00,,---,0.00,VWS V14.01,2013-11-04 05:41:00,
2013-11-03 23:46:00,44.0,43.2,30.11,SE,126,0.0,0.0,97,0.00,,---,0.00,VWS V14.01,2013-11-04 05:46:00,
2013-11-03 23:51:00,44.0,43.2,30.11,SE,125,0.0,0.0,97,0.00,,---,0.00,VWS V14.01,2013-11-04 05:51:00,
2013-11-03 23:56:00,44.0,43.2,30.11,SE,125,0.0,0.0,97,0.00,,---,0.00,VWS V14.01,2013-11-04 05:56:00,